FW4373 Weather Reports


time (UTC)temp
F
wind
direction
speed
knots
gust
knots
rain 1hr
in
rain 24hr
in
rain mn
in
humidity
%
barometer
mb
20260506044532 46 0 0.0 0.9 0.00 0.00 0.00 81 1013.7
20260506043028 46 0 0.0 4.3 0.00 0.00 0.00 81 1013.6
20260506041528 46 0 0.0 4.3 0.00 0.00 0.00 81 1013.6
20260506040040 47 0 0.0 4.3 0.00 0.00 0.00 82 1013.6
20260506034526 47 0 0.0 5.2 0.00 0.00 0.00 83 1013.5
20260506033029 47 0 0.0 0.9 0.00 0.00 0.00 82 1013.4
20260506031528 47 0 0.0 4.3 0.00 0.00 0.00 82 1013.4
20260506030025 48 0 0.0 3.5 0.00 0.00 0.00 82 1013.5
20260506024536 48 0 0.0 2.6 0.00 0.00 0.00 82 1013.4
20260506023030 48 0 0.9 6.1 0.00 0.00 0.00 82 1013.5
20260506021542 48 0 0.0 1.7 0.00 0.00 0.00 82 1013.6
20260506020028 48 0 0.0 3.5 0.00 0.00 0.00 82 1013.6
20260506014528 48 0 0.0 5.2 0.00 0.00 0.00 81 1013.5
20260506013025 49 0 0.0 4.3 0.00 0.00 0.00 81 1013.6
20260506011529 49 0 0.0 4.3 0.00 0.00 0.00 80 1013.6
20260506010039 49 0 0.0 3.5 0.00 0.00 0.00 79 1013.7
20260506004528 50 0 0.0 3.5 0.00 0.00 0.00 78 1013.7
20260506003028 50 0 0.9 8.7 0.00 0.00 0.00 77 1013.7
20260506001530 50 0 0.9 7.0 0.00 0.00 0.00 77 1013.7
20260506000031 51 0 0.9 7.0 0.00 0.00 0.00 76 1013.7
20260505234539 51 89 1.7 8.7 0.00 0.00 0.00 76 1013.7
20260505233033 51 108 2.6 13.0 0.00 0.00 0.00 76 1013.7
20260505231531 52 71 1.7 8.7 0.00 0.00 0.00 75 1013.7
20260505230028 52 63 2.6 10.4 0.00 0.00 0.00 74 1013.7
20260505224531 53 80 1.7 6.1 0.00 0.00 0.00 74 1013.7
20260505223028 53 67 2.6 11.3 0.00 0.00 0.00 73 1013.7
20260505221528 53 86 1.7 7.8 0.00 0.00 0.00 72 1013.6
20260505220027 53 0 1.7 7.0 0.00 0.00 0.00 73 1013.5
20260505214536 54 0 0.9 7.8 0.00 0.00 0.00 73 1013.5
20260505213027 54 0 2.6 8.7 0.00 0.00 0.00 72 1013.5
20260505211539 54 98 0.9 9.6 0.00 0.00 0.00 72 1013.4
20260505210029 54 29 0.0 8.7 0.00 0.00 0.00 72 1013.3
20260505204530 55 0 0.0 3.5 0.00 0.00 0.00 71 1013.2
20260505203037 55 0 0.0 7.0 0.00 0.00 0.00 70 1013.2
20260505201528 55 0 0.0 6.1 0.00 0.00 0.00 70 1013.0
20260505200025 55 0 0.0 2.6 0.00 0.00 0.00 70 1013.0
20260505194528 55 0 0.0 5.2 0.00 0.00 0.00 69 1012.8
20260505193027 56 0 0.0 3.5 0.00 0.00 0.00 69 1012.7
20260505191528 56 79 0.9 10.4 0.00 0.00 0.00 70 1012.5
20260505190027 56 0 0.0 0.0 0.00 0.00 0.00 69 1012.5
20260505184542 57 0 0.0 0.9 0.00 0.00 0.00 69 1012.3
20260505183037 57 72 0.0 6.1 0.00 0.00 0.00 68 1012.4
20260505181530 57 0 0.0 4.3 0.00 0.00 0.00 68 1012.3
20260505180029 57 0 0.0 2.6 0.00 0.00 0.00 68 1012.4
20260505174529 57 0 0.0 4.3 0.00 0.00 0.00 68 1012.2
20260505173026 57 0 0.0 5.2 0.00 0.00 0.00 68 1012.4
20260505171528 58 0 0.0 0.9 0.00 0.00 0.00 68 1012.5
20260505170035 58 0 0.0 1.7 0.00 0.00 0.00 68 1012.4
20260505164534 58 0 0.0 4.3 0.00 0.00 0.00 67 1012.5
20260505163028 58 85 0.0 2.6 0.00 0.00 0.00 67 1012.5
20260505161526 58 90 0.0 5.2 0.00 0.00 0.00 66 1012.6
20260505153028 59 0 0.9 7.0 0.00 0.00 0.00 67 1012.6
20260505151535 59 0 0.9 5.2 0.00 0.00 0.00 68 1012.6
20260505124528 57 61 0.0 4.3 0.00 0.00 0.00 67 1013.3
20260505123026 58 0 1.7 5.2 0.00 0.00 0.00 66 1013.3
20260505121526 58 0 0.0 7.0 0.00 0.00 0.00 65 1013.3
20260505120029 59 66 2.6 7.0 0.00 0.00 0.00 66 1013.3
20260505114528 57 102 1.7 11.3 0.00 0.00 0.00 71 1013.4
20260505113039 57 0 1.7 8.7 0.00 0.00 0.00 71 1013.3
20260505111540 56 0 0.9 6.1 0.00 0.00 0.00 74 1013.5
20260505091526 54 73 0.9 6.1 0.00 0.00 0.00 79 1014.0
20260505090032 53 36 2.6 8.7 0.00 0.00 0.00 80 1013.8
20260505084530 53 64 1.7 7.0 0.00 0.00 0.00 80 1014.1
20260505083026 53 0 0.0 4.3 0.00 0.00 0.00 81 1014.1
20260505081530 53 69 2.6 7.8 0.00 0.00 0.00 82 1014.1
20260505080030 53 319 1.7 7.8 0.00 0.00 0.00 82 1014.1
20260505074526 52 0 1.7 6.1 0.00 0.00 0.00 85 1014.1
20260505073030 51 0 0.9 7.0 0.00 0.00 0.00 86 1014.1
20260505071529 51 69 0.9 6.1 0.00 0.00 0.00 86 1014.3
20260505070027 51 33 0.0 4.3 0.00 0.00 0.00 87 1014.3
20260505064527 51 34 0.9 7.0 0.00 0.00 0.00 87 1014.3
20260505063025 50 0 0.0 4.3 0.00 0.00 0.00 89 1014.2
20260505061529 50 0 0.0 2.6 0.00 0.00 0.00 90 1014.1
20260505060026 49 0 0.0 2.6 0.00 0.00 0.00 91 1014.1
20260505054541 49 0 0.0 0.9 0.00 0.00 0.00 91 1014.1
20260505053027 48 0 0.0 2.6 0.00 0.00 0.00 91 1014.1